This is the latest recevied weather packets stored in our database for station/object OE2SWM. If no packets are shown the sender has not sent any weather packets the latest 10 day(s).
| Time | Temp. | Humidity | Pressure | Rain* | Wind** | Luminosity | Snow |
|---|---|---|---|---|---|---|---|
| 1777885800 | 18.89° C | 45% | 970 hPa | 0 mm | - | - | - |
| 1777885200 | 17.78° C | 44% | 970 hPa | 0 mm | - | - | - |
| 1777884600 | 17.78° C | 44% | 970 hPa | 0 mm | - | - | - |
| 1777884000 | 16.67° C | 46% | 970 hPa | 0 mm | - | - | - |
| 1777883400 | 16.67° C | 46% | 970 hPa | 0 mm | - | - | - |
| 1777882800 | 16.67° C | 45% | 970 hPa | 0 mm | - | - | - |
| 1777882200 | 16.67° C | 50% | 970 hPa | 0 mm | - | - | - |
| 1777881600 | 15.56° C | 50% | 970 hPa | 0 mm | - | - | - |
| 1777881000 | 15.56° C | 48% | 970 hPa | 0 mm | - | - | - |
| 1777880400 | 15.56° C | 50% | 970 hPa | 0 mm | - | - | - |
| 1777879800 | 15.56° C | 51% | 970 hPa | 0 mm | - | - | - |
| 1777879200 | 15° C | 53% | 970 hPa | 0 mm | - | - | - |
| 1777878600 | 15° C | 54% | 970 hPa | 0 mm | - | - | - |
| 1777878000 | 13.89° C | 53% | 970 hPa | 0 mm | - | - | - |
| 1777877400 | 15° C | 54% | 970 hPa | 0 mm | - | - | - |
| 1777876800 | 15° C | 54% | 970 hPa | 0 mm | - | - | - |
| 1777876200 | 15° C | 52% | 970 hPa | 0 mm | - | - | - |
| 1777875600 | 15.56° C | 51% | 970 hPa | 0 mm | - | - | - |
| 1777875000 | 15.56° C | 51% | 970 hPa | 0 mm | - | - | - |
| 1777874400 | 15.56° C | 54% | 970 hPa | 0 mm | - | - | - |
| 1777873800 | 15° C | 56% | 970 hPa | 0 mm | - | - | - |
| 1777873200 | 15.56° C | 52% | 970 hPa | 0 mm | - | - | - |
| 1777872600 | 17.78° C | 49% | 970 hPa | 0 mm | - | - | - |
| 1777872000 | 20° C | 45% | 970 hPa | 0 mm | - | - | - |
| 1777871400 | 20° C | 46% | 971 hPa | 0 mm | - | - | - |
* Rain latest hour (hover to see other rain measurements)
** Current wind speed in m/s (hover to see current wind gust speed)